Regional Weather Roundup
Issued by NWS

Home | Current Version | Previous Version | Text Only | Print | Product List | Glossary On
Versions: 1 2 3 4 5 6 7 8 9 10 11 12 13 14 15 16 17 18 19 20 21 22 23 24 25 26 27 28 29 30 31 32 33 34 35 36 37 38 39 40 41 42 43 44 45 46 47 48 49 50
000
ASUS45 KBOU 301307
RWRCO

WEATHER ROUNDUP FOR COLORADO
NATIONAL WEATHER SERVICE DENVER/BOULDER CO
700 AM MDT SUN AUG 30 2015

NOTE: "FAIR" INDICATES FEW OR NO CLOUDS BELOW 12000 FEET WITH NO
SIGNIFICANT WEATHER AND/OR OBSTRUCTIONS TO VISIBILITY.

COZ001>005-013-030-031-301400-
...NORTHWEST COLORADO...

CITY           SKY/WX    TMP DP  RH WIND       PRES   REMARKS
CRAIG          CLEAR     46  40  79 CALM      30.20R
HAYDEN         NOT AVBL
MEEKER         MOCLDY    52  40  63 W3        30.21R
MOUNT WERNER   NOT AVBL
STEAMBOAT SPGS CLEAR     46  39  77 CALM      30.26R
WALDEN         PTCLDY    39  32  75 SE5       30.34R
$$

COZ006>008-011-301400-
...WEST CENTRAL VALLEYS...

CITY           SKY/WX    TMP DP  RH WIND       PRES   REMARKS
GRAND JUNCTION CLEAR     59  41  51 E7        30.10R
MONTROSE       PTCLDY    58  42  55 S8        30.21S
EAGLE          CLEAR     46  39  76 SE3       30.32R
RIFLE          CLEAR     51  43  74 SE3       30.19R
DELTA          PTCLDY    61  44  53 E7        30.17S
NUCLA          PTCLDY    59  39  47 E8        30.25R
$$

COZ017>023-064>068-301400-
...SOUTHWEST COLORADO...

CITY           SKY/WX    TMP DP  RH WIND       PRES   REMARKS
DURANGO        CLEAR     50  44  80 CALM      30.32R
CORTEZ         CLOUDY    57  47  69 CALM      30.23R
PAGOSA SPRINGS CLEAR     48  43  85 CALM      30.40S
TELLURIDE      PTCLDY    57  40  52 SE3       30.48R
WOLF CREEK PAS CLEAR     43  37  81 SW14      30.69S
$$

COZ009-010-012-014-032>034-037-058>063-301400-
...CENTRAL COLORADO...

CITY           SKY/WX    TMP DP  RH WIND       PRES   REMARKS
ASPEN          CLEAR     49  38  65 SW9       30.34R
BUENA VISTA    CLEAR     48  38  68 NW6       30.40R
COPPER MTN     CLEAR     54  28  37 SW9G17    30.65R
BERTHOUD PASS  FAIR      43  32  65 W23G36    30.67R
COTTONWOOD PAS CLEAR     55  37  50 CALM      30.50S
GUNNISON       PTCLDY    39  34  81 CALM      30.43R
KREMMLING      CLEAR     37  34  87 CALM      30.36R
LEADVILLE      CLEAR     35  33  92 CALM      30.50R
MONARCH PASS   CLEAR     45  36  70 SW14      30.75R
SALIDA         CLEAR     55  40  57 NW13      30.43R
SUNLIGHT       CLEAR     52  32  46 CALM      30.56R
WILKERSON PASS CLEAR     46  34  61 W8        30.62R
$$

COZ069>075-301400-
...SAN LUIS VALLEY/SANGRE DE CRISTO MOUNTAINS...

CITY           SKY/WX    TMP DP  RH WIND       PRES   REMARKS
ALAMOSA        PTCLDY    48  41  76 SE5       30.38R
LA VETA PASS   CLEAR     46  39  76 MISG      30.52R
SAGUACHE       NOT AVBL
$$

COZ035-036-038>040-301400-
...NORTHERN COLORADO FRONT RANGE...

CITY           SKY/WX    TMP DP  RH WIND       PRES   REMARKS
DENVER INTL AP MOCLDY    65  42  43 SW12      30.11R
DMNS CITY PARK   N/A     62  46  55 SE7       30.11S
AURORA         NOT AVBL
FRONT RANGE AP PTCLDY    63  41  45 CALM      30.13
ERIE MUNI ARPT CLEAR     55  46  73 CALM      30.10R
BOULDER MUN AP CLEAR     61  45  55 CALM      30.10R
CENTENNIAL     MOCLDY    65  42  43 S7        30.15R
BROOMFIELD     PTCLDY    63  43  48 CALM      30.13R
FORT COLLINS   PTCLDY    57  45  62 CALM      30.10R
LONGMONT       PTCLDY    56  46  69 NW3       30.11R
$$

COZ041-046-047-076>085-087-088-301400-
...PIKES PEAK/PALMER DIVIDE AND SOUTHERN FOOTHILLS...

CITY           SKY/WX    TMP DP  RH WIND       PRES   REMARKS
COLO. SPRINGS  PTCLDY    54  44  69 N9        30.20S
A. F. ACADEMY  PTCLDY    54  43  67 N3        30.22R
ELLICOTT       PTCLDY   N/A N/A N/A MISG      30.19R
FALCON         PTCLDY    58  47  66 MISG      30.25S
FORT CARSON    PTCLDY    54  44  69 NW8       30.17S
LIMON          CLEAR     46  44  93 CALM      30.16R
MONUMENT HILL  PTCLDY    59  39  47 SW8       30.25R
TRINIDAD       CLEAR     62  49  62 SW9       30.19R
$$

COZ042>045-048>051-090-091-301400-
...NORTHEAST COLORADO...

CITY           SKY/WX    TMP DP  RH WIND       PRES   REMARKS
GREELEY ARPT   PTCLDY    52  45  76 NW3       30.08R
AKRON          CLEAR     65  45  48 S12       30.07S
BURLINGTON     CLEAR     61  46  57 S10       30.11R
WRAY           PTCLDY    64  46  52 SW6       30.06R
STERLING       CLEAR     55  46  71 SW5       30.03R
HOLYOKE        PTCLDY    59  50  72 S8        30.04F
FORT MORGAN    CLEAR     60  42  52 S3        30.07R
$$

COZ086-089-092>099-301400-
...SOUTHEAST COLORADO...

CITY           SKY/WX    TMP DP  RH WIND       PRES   REMARKS
PUEBLO         PTCLDY    58  44  60 W5        30.12R
LA JUNTA       CLEAR     61  46  57 CALM      30.10R
LAMAR          NOT AVBL
SPRINGFIELD    NOT AVBL
$$



USA.gov is the U.S. government's official web portal to all federal, state and local government web resources and services.